Location: Ernez
(36.4595°N, 29.8755°E)
Time: 08:04:55
(UTC+00:00)

NOAA 6 - Pass Details

Date: 13 November 2025
Orbit: 766 x 782 km, 98.6° (Epoch: 05 December)

Event Time Altitude Azimuth Distance (km) Brightness Sun altitude
Rises 16:46:26 0° 164° (SSE) 3,251 7.2 -22.8°
Reaches altitude 10° 16:48:44 10° 163° (SSE) 2,327 6.4 -23.3°
Maximum altitude 16:53:53 85° 77° (ENE) 788 3.9 -24.3°
Drops below altitude 10° 16:59:03 10° 348° (NNW) 2,335 6.6 -25.4°
Sets 17:01:22 0° 348° (NNW) 3,264 7.4 -25.8°
